RYR55PN LICJ-LIMP

Flight info

Callsign RYR55PN
Flight time 1h 14m
Altitude 38000
Route LURON DCT DORAS DCT UNIXO DCT OST DCT AMTEL DCT IPLUB L995 LUPOS
Aircraft B738/M-SDE3FGILRWY/SB1

Departure

Time 2026-05-07 18:26
Airport Falcone–Borsellino Airport (LICJ)

Arrival

Time 2026-05-07 19:40
Airport Parma Airport (LIMP)
Time Latitude Longitude Altitude Speed Heading
2026-05-07 18:15 38.18571 13.10724 48 ft 0 kts 321°
2026-05-07 18:18 38.18568 13.10728 47 ft 2 kts 322°
2026-05-07 18:18 38.18554 13.10739 50 ft 2 kts 335°
2026-05-07 18:19 38.18538 13.10746 50 ft 2 kts 358°
2026-05-07 18:19 38.18522 13.10742 48 ft 2 kts 34°
2026-05-07 18:19 38.18510 13.10728 50 ft 2 kts 56°
2026-05-07 18:19 38.18507 13.10721 50 ft 0 kts 60°
2026-05-07 18:22 38.18508 13.10724 50 ft 1 kts 66°
2026-05-07 18:22 38.18507 13.10726 46 ft 1 kts 92°
2026-05-07 18:22 38.18492 13.10750 48 ft 5 kts 104°
2026-05-07 18:22 38.18473 13.10842 50 ft 15 kts 104°
2026-05-07 18:23 38.18449 13.10929 52 ft 16 kts 116°
2026-05-07 18:23 38.18457 13.11056 51 ft 15 kts 69°
2026-05-07 18:23 38.18494 13.11178 54 ft 14 kts 69°
2026-05-07 18:23 38.18541 13.11332 53 ft 14 kts 69°
2026-05-07 18:24 38.18567 13.11419 52 ft 17 kts 69°
2026-05-07 18:24 38.18611 13.11565 54 ft 17 kts 71°
2026-05-07 18:24 38.18608 13.11710 51 ft 17 kts 96°
2026-05-07 18:24 38.18587 13.11835 58 ft 16 kts 105°
2026-05-07 18:25 38.18514 13.11872 59 ft 11 kts 212°
2026-05-07 18:25 38.18445 13.11668 52 ft 56 kts 248°
2026-05-07 18:25 38.18194 13.10924 51 ft 124 kts 248°
2026-05-07 18:25 38.17807 13.09740 310 ft 154 kts 247°
2026-05-07 18:26 38.17398 13.08478 1017 ft 159 kts 247°
2026-05-07 18:26 38.17077 13.07115 1696 ft 165 kts 275°
2026-05-07 18:26 38.17626 13.05792 2152 ft 190 kts 321°
2026-05-07 18:26 38.18471 13.05286 2370 ft 210 kts 344°
2026-05-07 18:27 38.19948 13.04942 2560 ft 234 kts 349°
2026-05-07 18:27 38.21621 13.04618 2883 ft 256 kts 350°
2026-05-07 18:27 38.23428 13.04270 3491 ft 267 kts 350°
2026-05-07 18:27 38.25281 13.03908 4269 ft 272 kts 350°
2026-05-07 18:28 38.27136 13.03538 5084 ft 275 kts 350°
2026-05-07 18:28 38.29064 13.03146 5906 ft 278 kts 350°
2026-05-07 18:28 38.30984 13.02749 6684 ft 282 kts 349°
2026-05-07 18:28 38.32901 13.02349 7439 ft 284 kts 349°
2026-05-07 18:29 38.34863 13.01935 8195 ft 287 kts 348°
2026-05-07 18:29 38.36844 13.01515 8976 ft 290 kts 348°
2026-05-07 18:29 38.38848 13.01088 9743 ft 294 kts 348°
2026-05-07 18:29 38.40883 13.00652 10287 ft 304 kts 348°
2026-05-07 18:30 38.43057 13.00181 10462 ft 328 kts 348°
2026-05-07 18:30 38.45349 12.99686 10922 ft 339 kts 348°
2026-05-07 18:30 38.47691 12.99182 11589 ft 342 kts 348°
2026-05-07 18:30 38.50048 12.98676 12335 ft 345 kts 347°
2026-05-07 18:31 38.52424 12.98165 13075 ft 348 kts 347°
2026-05-07 18:31 38.54829 12.97646 13782 ft 353 kts 347°
2026-05-07 18:31 38.57263 12.97120 14448 ft 357 kts 347°
2026-05-07 18:31 38.59733 12.96586 15095 ft 362 kts 347°
2026-05-07 18:32 38.62234 12.96044 15765 ft 367 kts 347°
2026-05-07 18:32 38.64764 12.95496 16442 ft 371 kts 347°
2026-05-07 18:32 38.67325 12.94940 17104 ft 375 kts 347°
2026-05-07 18:32 38.69916 12.94378 17754 ft 380 kts 347°
2026-05-07 18:33 38.72539 12.93808 18386 ft 384 kts 346°
2026-05-07 18:33 38.75182 12.93234 19014 ft 386 kts 346°
2026-05-07 18:33 38.77836 12.92658 19675 ft 387 kts 346°
2026-05-07 18:33 38.80463 12.92087 20306 ft 389 kts 345°
2026-05-07 18:34 38.83173 12.91496 20922 ft 392 kts 345°
2026-05-07 18:34 38.85835 12.90916 21507 ft 394 kts 345°
2026-05-07 18:34 38.88546 12.90324 22085 ft 397 kts 344°
2026-05-07 18:34 38.91289 12.89724 22667 ft 400 kts 344°
2026-05-07 18:35 38.94036 12.89124 23236 ft 402 kts 344°
2026-05-07 18:35 38.96813 12.88516 23717 ft 405 kts 344°
2026-05-07 18:35 38.99608 12.87903 24121 ft 410 kts 343°
2026-05-07 18:35 39.02437 12.87282 24505 ft 414 kts 343°
2026-05-07 18:36 39.05291 12.86655 24893 ft 419 kts 343°
2026-05-07 18:36 39.08171 12.86023 25295 ft 422 kts 343°
2026-05-07 18:36 39.11078 12.85384 25701 ft 426 kts 343°
2026-05-07 18:36 39.14011 12.84740 26087 ft 429 kts 343°
2026-05-07 18:37 39.16970 12.84089 26487 ft 433 kts 343°
2026-05-07 18:37 39.19948 12.83434 26865 ft 436 kts 343°
2026-05-07 18:37 39.22947 12.82774 27252 ft 439 kts 343°
2026-05-07 18:37 39.25965 12.82109 27652 ft 441 kts 342°
2026-05-07 18:38 39.29003 12.81438 28024 ft 444 kts 342°
2026-05-07 18:38 39.32018 12.80773 28397 ft 447 kts 342°
2026-05-07 18:38 39.35095 12.80099 28773 ft 450 kts 342°
2026-05-07 18:38 39.38190 12.79422 29138 ft 452 kts 342°
2026-05-07 18:39 39.41342 12.78732 29509 ft 455 kts 342°
2026-05-07 18:39 39.44428 12.78052 29863 ft 457 kts 342°
2026-05-07 18:39 39.47568 12.77358 30171 ft 459 kts 342°
2026-05-07 18:39 39.50725 12.76658 30458 ft 461 kts 342°
2026-05-07 18:40 39.53896 12.75954 30743 ft 463 kts 342°
2026-05-07 18:40 39.57123 12.75235 31027 ft 465 kts 341°
2026-05-07 18:40 39.60273 12.74533 31298 ft 467 kts 341°
2026-05-07 18:40 39.63477 12.73819 31632 ft 467 kts 341°
2026-05-07 18:41 39.66675 12.73108 32045 ft 465 kts 341°
2026-05-07 18:41 39.69857 12.72401 32467 ft 463 kts 341°
2026-05-07 18:41 39.73031 12.71693 32831 ft 462 kts 340°
2026-05-07 18:41 39.76201 12.70984 33170 ft 462 kts 340°
2026-05-07 18:42 39.79364 12.70275 33534 ft 461 kts 340°
2026-05-07 18:42 39.82521 12.69567 33908 ft 460 kts 340°
2026-05-07 18:42 39.85672 12.68860 34227 ft 459 kts 340°
2026-05-07 18:42 39.88812 12.68154 34488 ft 459 kts 339°
2026-05-07 18:43 39.91958 12.67445 34746 ft 459 kts 339°
2026-05-07 18:43 39.95102 12.66736 35017 ft 458 kts 339°
2026-05-07 18:43 39.98244 12.66028 35290 ft 458 kts 339°
2026-05-07 18:43 40.01385 12.65319 35537 ft 458 kts 339°
2026-05-07 18:44 40.04527 12.64609 35777 ft 458 kts 338°
2026-05-07 18:44 40.07669 12.63899 36028 ft 458 kts 338°
2026-05-07 18:44 40.10811 12.63188 36277 ft 458 kts 338°
2026-05-07 18:44 40.13950 12.62477 36513 ft 458 kts 338°
2026-05-07 18:45 40.17088 12.61766 36753 ft 458 kts 338°
2026-05-07 18:45 40.20227 12.61054 36988 ft 458 kts 338°
2026-05-07 18:45 40.23362 12.60343 37231 ft 457 kts 338°
2026-05-07 18:45 40.26495 12.59632 37477 ft 457 kts 337°
2026-05-07 18:46 40.29624 12.58920 37687 ft 457 kts 337°
2026-05-07 18:46 40.32756 12.58206 37891 ft 456 kts 337°
2026-05-07 18:46 40.35890 12.57491 37923 ft 458 kts 337°
2026-05-07 18:47 40.42171 12.56056 37936 ft 458 kts 338°
2026-05-07 18:47 40.48428 12.54629 37934 ft 455 kts 338°
2026-05-07 18:48 40.54618 12.53213 37940 ft 453 kts 338°
2026-05-07 18:48 40.60825 12.51788 37946 ft 452 kts 338°
2026-05-07 18:49 40.67011 12.50365 37944 ft 451 kts 339°
2026-05-07 18:49 40.73181 12.48943 37940 ft 450 kts 339°
2026-05-07 18:50 40.79337 12.47521 37947 ft 449 kts 339°
2026-05-07 18:50 40.85481 12.46100 37948 ft 448 kts 339°
2026-05-07 18:51 40.91621 12.44677 37949 ft 448 kts 339°
2026-05-07 18:51 40.97756 12.43252 37951 ft 448 kts 339°
2026-05-07 18:52 41.03545 12.41906 37952 ft 448 kts 340°
2026-05-07 18:52 41.09679 12.40476 37950 ft 448 kts 340°
2026-05-07 18:53 41.15820 12.39043 37951 ft 448 kts 340°
2026-05-07 18:53 41.21958 12.37607 37949 ft 448 kts 340°
2026-05-07 18:54 41.28093 12.36170 37943 ft 448 kts 340°
2026-05-07 18:54 41.34232 12.34729 37943 ft 448 kts 340°
2026-05-07 18:55 41.40367 12.33286 37951 ft 448 kts 340°
2026-05-07 18:55 41.46505 12.31839 37956 ft 448 kts 341°
2026-05-07 18:56 41.52638 12.30391 37962 ft 448 kts 341°
2026-05-07 18:56 41.58773 12.28940 37964 ft 448 kts 341°
2026-05-07 18:57 41.64904 12.27486 37967 ft 448 kts 341°
2026-05-07 18:57 41.70997 12.26039 37947 ft 448 kts 341°
2026-05-07 18:58 41.77171 12.24570 37945 ft 448 kts 341°
2026-05-07 18:58 41.83207 12.22774 37945 ft 439 kts 334°
2026-05-07 18:59 41.88995 12.20236 38107 ft 437 kts 332°
2026-05-07 18:59 41.94722 12.17634 38111 ft 438 kts 333°
2026-05-07 19:00 42.00512 12.15055 38117 ft 439 kts 333°
2026-05-07 19:00 42.06319 12.12506 38097 ft 439 kts 333°
2026-05-07 19:01 42.12127 12.09965 38059 ft 439 kts 333°
2026-05-07 19:01 42.17941 12.07417 38023 ft 439 kts 333°
2026-05-07 19:02 42.23746 12.04866 37978 ft 439 kts 333°
2026-05-07 19:02 42.29551 12.02308 37975 ft 439 kts 333°
2026-05-07 19:03 42.35367 11.99741 37969 ft 440 kts 333°
2026-05-07 19:03 42.41180 11.97171 37971 ft 440 kts 333°
2026-05-07 19:04 42.46993 11.94595 37971 ft 440 kts 333°
2026-05-07 19:04 42.52811 11.92013 37973 ft 440 kts 333°
2026-05-07 19:04 42.55736 11.90709 37528 ft 446 kts 333°
2026-05-07 19:05 42.58665 11.89407 37207 ft 439 kts 333°
2026-05-07 19:05 42.61556 11.88124 36766 ft 435 kts 333°
2026-05-07 19:05 42.64421 11.86852 36388 ft 431 kts 333°
2026-05-07 19:05 42.67251 11.85593 36011 ft 426 kts 333°
2026-05-07 19:06 42.70055 11.84341 35622 ft 422 kts 333°
2026-05-07 19:06 42.75289 11.81999 34901 ft 416 kts 332°
2026-05-07 19:06 42.77704 11.80916 34565 ft 413 kts 332°
2026-05-07 19:07 42.80275 11.79763 34210 ft 411 kts 332°
2026-05-07 19:07 42.82976 11.78550 33810 ft 408 kts 332°
2026-05-07 19:07 42.85662 11.77343 33387 ft 405 kts 332°
2026-05-07 19:07 42.88326 11.76145 32999 ft 401 kts 332°
2026-05-07 19:08 42.90968 11.74956 32619 ft 398 kts 333°
2026-05-07 19:08 42.93587 11.73776 32252 ft 394 kts 333°
2026-05-07 19:08 42.96179 11.72608 31889 ft 391 kts 333°
2026-05-07 19:08 42.98748 11.71449 31539 ft 388 kts 333°
2026-05-07 19:09 43.00475 11.70668 31292 ft 386 kts 333°
2026-05-07 19:09 43.02978 11.69536 30946 ft 383 kts 333°
2026-05-07 19:09 43.05497 11.68396 30600 ft 380 kts 333°
2026-05-07 19:09 43.07996 11.67264 30256 ft 377 kts 333°
2026-05-07 19:10 43.10478 11.66139 29887 ft 374 kts 333°
2026-05-07 19:10 43.12938 11.65023 29496 ft 371 kts 333°
2026-05-07 19:10 43.15369 11.63919 29149 ft 366 kts 333°
2026-05-07 19:10 43.17778 11.62825 28785 ft 363 kts 333°
2026-05-07 19:11 43.20162 11.61743 28427 ft 359 kts 333°
2026-05-07 19:11 43.22483 11.60563 28072 ft 351 kts 326°
2026-05-07 19:11 43.24610 11.59021 27817 ft 342 kts 323°
2026-05-07 19:11 43.26679 11.57435 27554 ft 340 kts 323°
2026-05-07 19:12 43.28748 11.55825 27310 ft 343 kts 323°
2026-05-07 19:12 43.30815 11.54219 27017 ft 339 kts 323°
2026-05-07 19:12 43.32865 11.52632 26667 ft 337 kts 323°
2026-05-07 19:12 43.34904 11.51058 26323 ft 335 kts 324°
2026-05-07 19:13 43.36933 11.49495 25983 ft 333 kts 324°
2026-05-07 19:13 43.38953 11.47940 25642 ft 332 kts 324°
2026-05-07 19:13 43.40963 11.46393 25305 ft 331 kts 324°
2026-05-07 19:13 43.42969 11.44848 24964 ft 330 kts 324°
2026-05-07 19:14 43.44967 11.43310 24627 ft 329 kts 325°
2026-05-07 19:14 43.46962 11.41773 24288 ft 328 kts 325°
2026-05-07 19:14 43.48953 11.40237 23928 ft 328 kts 325°
2026-05-07 19:14 43.50945 11.38701 23594 ft 328 kts 326°
2026-05-07 19:15 43.52930 11.37168 23191 ft 327 kts 326°
2026-05-07 19:15 43.54913 11.35637 22825 ft 326 kts 326°
2026-05-07 19:15 43.56888 11.34111 22463 ft 325 kts 326°
2026-05-07 19:15 43.58852 11.32593 22120 ft 323 kts 326°
2026-05-07 19:16 43.60806 11.31080 21785 ft 321 kts 326°
2026-05-07 19:16 43.62753 11.29572 21443 ft 320 kts 326°
2026-05-07 19:16 43.64690 11.28070 21106 ft 318 kts 327°
2026-05-07 19:16 43.66591 11.26596 20782 ft 317 kts 327°
2026-05-07 19:17 43.68510 11.25106 20456 ft 316 kts 327°
2026-05-07 19:17 43.70419 11.23622 20124 ft 315 kts 327°
2026-05-07 19:17 43.72328 11.22138 19791 ft 314 kts 327°
2026-05-07 19:17 43.74227 11.20660 19464 ft 313 kts 327°
2026-05-07 19:18 43.76121 11.19185 19135 ft 312 kts 328°
2026-05-07 19:18 43.78010 11.17713 18818 ft 311 kts 328°
2026-05-07 19:18 43.79896 11.16242 18490 ft 311 kts 328°
2026-05-07 19:18 43.81780 11.14772 18127 ft 311 kts 328°
2026-05-07 19:19 43.83662 11.13302 17770 ft 310 kts 328°
2026-05-07 19:19 43.85538 11.11835 17427 ft 309 kts 328°
2026-05-07 19:19 43.87405 11.10376 17091 ft 308 kts 328°
2026-05-07 19:19 43.89266 11.08920 16773 ft 306 kts 328°
2026-05-07 19:20 43.91118 11.07469 16447 ft 305 kts 328°
2026-05-07 19:20 43.92967 11.06020 16125 ft 304 kts 328°
2026-05-07 19:20 43.94806 11.04577 15810 ft 304 kts 329°
2026-05-07 19:20 43.96640 11.03137 15492 ft 303 kts 329°
2026-05-07 19:21 43.98477 11.01695 15169 ft 302 kts 329°
2026-05-07 19:21 44.00304 11.00259 14862 ft 302 kts 329°
2026-05-07 19:21 44.02129 10.98823 14552 ft 301 kts 329°
2026-05-07 19:21 44.03953 10.97387 14235 ft 301 kts 329°
2026-05-07 19:22 44.05776 10.95950 13917 ft 301 kts 329°
2026-05-07 19:22 44.07599 10.94513 13567 ft 301 kts 329°
2026-05-07 19:22 44.09419 10.93078 13228 ft 300 kts 329°
2026-05-07 19:22 44.11230 10.91648 12913 ft 299 kts 329°
2026-05-07 19:23 44.13036 10.90222 12594 ft 298 kts 329°
2026-05-07 19:23 44.14832 10.88801 12265 ft 297 kts 329°
2026-05-07 19:23 44.16625 10.87383 11937 ft 295 kts 329°
2026-05-07 19:23 44.18407 10.85972 11628 ft 294 kts 329°
2026-05-07 19:24 44.20180 10.84568 11309 ft 293 kts 329°
2026-05-07 19:24 44.21948 10.83166 10997 ft 292 kts 329°
2026-05-07 19:24 44.23709 10.81770 10686 ft 291 kts 329°
2026-05-07 19:24 44.25461 10.80362 10329 ft 291 kts 327°
2026-05-07 19:25 44.27177 10.78872 10002 ft 290 kts 326°
2026-05-07 19:25 44.28839 10.77391 9906 ft 280 kts 326°
2026-05-07 19:25 44.30506 10.75899 9437 ft 284 kts 326°
2026-05-07 19:25 44.32172 10.74410 9067 ft 285 kts 326°
2026-05-07 19:26 44.33837 10.72927 8759 ft 283 kts 327°
2026-05-07 19:26 44.35493 10.71454 8455 ft 281 kts 327°
2026-05-07 19:26 44.37142 10.69988 8150 ft 279 kts 327°
2026-05-07 19:26 44.38776 10.68537 7858 ft 277 kts 327°
2026-05-07 19:27 44.40404 10.67090 7565 ft 276 kts 327°
2026-05-07 19:27 44.42020 10.65653 7271 ft 275 kts 327°
2026-05-07 19:27 44.43629 10.64222 6985 ft 274 kts 327°
2026-05-07 19:27 44.45214 10.62812 6693 ft 273 kts 327°
2026-05-07 19:28 44.46751 10.61444 6470 ft 269 kts 327°
2026-05-07 19:28 44.48340 10.60029 6123 ft 270 kts 327°
2026-05-07 19:28 44.49924 10.58616 5822 ft 269 kts 328°
2026-05-07 19:28 44.51501 10.57204 5535 ft 269 kts 328°
2026-05-07 19:29 44.53071 10.55785 5236 ft 268 kts 328°
2026-05-07 19:29 44.54633 10.54372 4948 ft 267 kts 328°
2026-05-07 19:29 44.56191 10.52961 4662 ft 265 kts 328°
2026-05-07 19:29 44.57720 10.51577 4538 ft 258 kts 328°
2026-05-07 19:30 44.59203 10.50232 4392 ft 250 kts 328°
2026-05-07 19:30 44.60645 10.48924 4283 ft 243 kts 328°
2026-05-07 19:30 44.62043 10.47657 4176 ft 236 kts 328°
2026-05-07 19:30 44.63396 10.46428 4024 ft 230 kts 328°
2026-05-07 19:31 44.64721 10.45225 3794 ft 229 kts 328°
2026-05-07 19:31 44.66042 10.44025 3595 ft 223 kts 328°
2026-05-07 19:31 44.67311 10.42871 3349 ft 212 kts 327°
2026-05-07 19:31 44.68513 10.41778 3119 ft 200 kts 327°
2026-05-07 19:32 44.69652 10.40742 2884 ft 190 kts 328°
2026-05-07 19:32 44.70735 10.39755 2679 ft 182 kts 328°
2026-05-07 19:32 44.71781 10.38802 2482 ft 176 kts 327°
2026-05-07 19:32 44.72786 10.37886 2275 ft 168 kts 327°
2026-05-07 19:33 44.73756 10.37002 2062 ft 165 kts 327°
2026-05-07 19:33 44.74718 10.36125 1850 ft 165 kts 327°
2026-05-07 19:33 44.75672 10.35255 1677 ft 160 kts 327°
2026-05-07 19:33 44.76601 10.34408 1441 ft 158 kts 327°
2026-05-07 19:34 44.77514 10.33575 1229 ft 155 kts 327°
2026-05-07 19:34 44.78406 10.32760 1004 ft 152 kts 327°
2026-05-07 19:34 44.79295 10.31947 807 ft 152 kts 327°
2026-05-07 19:34 44.80184 10.31162 730 ft 150 kts 328°
2026-05-07 19:35 44.81011 10.30246 702 ft 151 kts 321°
2026-05-07 19:35 44.81933 10.29485 344 ft 157 kts 349°
2026-05-07 19:35 44.82894 10.29845 301 ft 142 kts 29°
2026-05-07 19:35 44.83828 10.30582 733 ft 161 kts 30°
2026-05-07 19:36 44.84834 10.31454 1253 ft 178 kts 34°
2026-05-07 19:36 44.85816 10.32647 1793 ft 194 kts 49°
2026-05-07 19:36 44.86735 10.33913 2624 ft 191 kts 42°
2026-05-07 19:36 44.87820 10.35122 2973 ft 207 kts 31°
2026-05-07 19:37 44.89234 10.35794 2908 ft 228 kts
2026-05-07 19:37 44.90768 10.35056 2129 ft 244 kts 314°
2026-05-07 19:37 44.91321 10.32945 1408 ft 229 kts 246°
2026-05-07 19:37 44.90120 10.31884 874 ft 210 kts 183°
2026-05-07 19:38 44.88732 10.32004 663 ft 186 kts 176°
2026-05-07 19:38 44.87603 10.31834 787 ft 143 kts 192°
2026-05-07 19:38 44.86696 10.31509 542 ft 130 kts 197°
2026-05-07 19:38 44.85830 10.31069 371 ft 137 kts 199°
2026-05-07 19:39 44.84944 10.30675 328 ft 134 kts 194°
2026-05-07 19:39 44.84024 10.30308 250 ft 140 kts 198°
2026-05-07 19:39 44.83100 10.29895 165 ft 132 kts 198°
2026-05-07 19:39 44.82401 10.29594 162 ft 73 kts 197°
2026-05-07 19:40 44.82165 10.29615 162 ft 25 kts 122°
2026-05-07 19:40 44.82090 10.29683 162 ft 12 kts 148°
2026-05-07 19:40 44.82038 10.29762 163 ft 0 kts 151°